NOZ1151 ENBR-ENVA

Flight info

Callsign NOZ1151
Flight time 0h 53m
Altitude 35000
Route INTUM DCT NELSU
Aircraft B738/M-SDE2E3FGHIRWXY/LB1

Departure

Time 2026-04-27 17:01
Airport Bergen Airport, Flesland (ENBR)

Arrival

Time 2026-04-27 17:54
Airport Trondheim Airport, Værnes (ENVA)
Time Latitude Longitude Altitude Speed Heading
2026-04-27 16:11 60.28994 5.22625 150 ft 0 kts 178°
2026-04-27 16:50 60.29012 5.22633 150 ft 3 kts 233°
2026-04-27 16:50 60.29017 5.22658 150 ft 0 kts 270°
2026-04-27 16:54 60.29017 5.22657 150 ft 1 kts 270°
2026-04-27 16:54 60.29021 5.22623 150 ft 5 kts 290°
2026-04-27 16:54 60.29038 5.22523 150 ft 10 kts 276°
2026-04-27 16:54 60.29018 5.22390 150 ft 11 kts 217°
2026-04-27 16:55 60.28946 5.22351 150 ft 11 kts 230°
2026-04-27 16:55 60.28882 5.22291 149 ft 12 kts 169°
2026-04-27 16:55 60.28794 5.22324 148 ft 14 kts 170°
2026-04-27 16:55 60.28702 5.22356 148 ft 13 kts 170°
2026-04-27 16:56 60.28611 5.22382 147 ft 13 kts 171°
2026-04-27 16:56 60.28529 5.22410 146 ft 11 kts 171°
2026-04-27 16:56 60.28455 5.22435 146 ft 11 kts 170°
2026-04-27 16:56 60.28376 5.22462 145 ft 12 kts 171°
2026-04-27 16:57 60.28282 5.22490 144 ft 15 kts 172°
2026-04-27 16:57 60.28174 5.22526 143 ft 16 kts 170°
2026-04-27 16:57 60.28113 5.22546 143 ft 0 kts 174°
2026-04-27 16:57 60.28111 5.22546 143 ft 0 kts 174°
2026-04-27 16:58 60.28108 5.22547 143 ft 0 kts 174°
2026-04-27 16:58 60.28107 5.22547 143 ft 1 kts 175°
2026-04-27 16:58 60.28082 5.22534 142 ft 7 kts 206°
2026-04-27 16:59 60.28058 5.22444 142 ft 0 kts 259°
2026-04-27 16:59 60.28056 5.22428 142 ft 2 kts 259°
2026-04-27 16:59 60.28052 5.22387 141 ft 5 kts 260°
2026-04-27 16:59 60.28049 5.22291 139 ft 5 kts 274°
2026-04-27 17:00 60.28133 5.22223 141 ft 12 kts 351°
2026-04-27 17:00 60.28322 5.22158 146 ft 49 kts 350°
2026-04-27 17:00 60.28917 5.21956 149 ft 122 kts 350°
2026-04-27 17:01 60.29925 5.21628 405 ft 158 kts 351°
2026-04-27 17:01 60.30968 5.21328 1399 ft 151 kts 349°
2026-04-27 17:01 60.32065 5.20959 1953 ft 174 kts 350°
2026-04-27 17:01 60.33378 5.20534 2271 ft 206 kts 351°
2026-04-27 17:02 60.34884 5.20044 2560 ft 230 kts 351°
2026-04-27 17:02 60.36511 5.19505 2988 ft 248 kts 351°
2026-04-27 17:02 60.38244 5.18918 3629 ft 261 kts 351°
2026-04-27 17:02 60.40031 5.18305 4624 ft 260 kts 351°
2026-04-27 17:03 60.41818 5.17688 5576 ft 261 kts 351°
2026-04-27 17:03 60.43622 5.17118 6510 ft 263 kts 357°
2026-04-27 17:03 60.45385 5.17958 7376 ft 264 kts 29°
2026-04-27 17:03 60.46946 5.19945 8230 ft 267 kts 32°
2026-04-27 17:04 60.48524 5.22044 8978 ft 273 kts 32°
2026-04-27 17:04 60.50121 5.24168 9825 ft 276 kts 32°
2026-04-27 17:04 60.51740 5.26299 10593 ft 280 kts 32°
2026-04-27 17:04 60.53440 5.28515 10876 ft 302 kts 32°
2026-04-27 17:05 60.55279 5.30893 11063 ft 325 kts 31°
2026-04-27 17:05 60.57254 5.33433 11249 ft 346 kts 31°
2026-04-27 17:05 60.59317 5.36079 11753 ft 354 kts 31°
2026-04-27 17:05 60.61415 5.38768 12446 ft 358 kts 31°
2026-04-27 17:06 60.63529 5.41478 13188 ft 360 kts 31°
2026-04-27 17:06 60.65662 5.44211 13915 ft 364 kts 31°
2026-04-27 17:06 60.67813 5.46971 14634 ft 366 kts 31°
2026-04-27 17:06 60.69980 5.49755 15303 ft 370 kts 30°
2026-04-27 17:07 60.72170 5.52570 15945 ft 374 kts 30°
2026-04-27 17:07 60.74388 5.55426 16633 ft 378 kts 30°
2026-04-27 17:07 60.76620 5.58306 17253 ft 382 kts 30°
2026-04-27 17:07 60.78868 5.61210 17361 ft 382 kts 30°
2026-04-27 17:08 60.81116 5.64122 17357 ft 382 kts 30°
2026-04-27 17:08 60.83370 5.67045 17380 ft 383 kts 30°
2026-04-27 17:08 60.85625 5.69974 17381 ft 384 kts 30°
2026-04-27 17:08 60.87879 5.72909 17384 ft 384 kts 30°
2026-04-27 17:09 60.90146 5.75864 17588 ft 390 kts 30°
2026-04-27 17:09 60.92441 5.78859 18337 ft 390 kts 30°
2026-04-27 17:09 60.94728 5.81849 19080 ft 390 kts 30°
2026-04-27 17:09 60.97023 5.84867 19669 ft 393 kts 31°
2026-04-27 17:10 60.99263 5.88148 20239 ft 398 kts 34°
2026-04-27 17:10 61.01459 5.91655 20840 ft 401 kts 36°
2026-04-27 17:10 61.03646 5.95259 21445 ft 404 kts 36°
2026-04-27 17:10 61.05843 5.98905 22033 ft 406 kts 36°
2026-04-27 17:11 61.08057 6.02574 22607 ft 409 kts 36°
2026-04-27 17:11 61.12542 6.09960 23724 ft 415 kts 35°
2026-04-27 17:11 61.14815 6.13687 24189 ft 418 kts 35°
2026-04-27 17:12 61.19405 6.21197 25081 ft 422 kts 35°
2026-04-27 17:12 61.21716 6.24995 25459 ft 425 kts 35°
2026-04-27 17:12 61.24036 6.28818 25890 ft 427 kts 35°
2026-04-27 17:13 61.26340 6.32617 26282 ft 429 kts 35°
2026-04-27 17:13 61.28681 6.36486 26702 ft 431 kts 35°
2026-04-27 17:13 61.31034 6.40380 27093 ft 433 kts 35°
2026-04-27 17:13 61.33400 6.44303 27471 ft 436 kts 35°
2026-04-27 17:14 61.35778 6.48254 27842 ft 438 kts 35°
2026-04-27 17:14 61.38164 6.52227 28184 ft 440 kts 35°
2026-04-27 17:14 61.40560 6.56223 28533 ft 442 kts 35°
2026-04-27 17:14 61.42971 6.60253 28872 ft 444 kts 35°
2026-04-27 17:15 61.45383 6.64295 29270 ft 445 kts 35°
2026-04-27 17:15 61.47785 6.68330 29791 ft 442 kts 35°
2026-04-27 17:15 61.50177 6.72357 30318 ft 440 kts 35°
2026-04-27 17:15 61.52558 6.76372 30716 ft 439 kts 35°
2026-04-27 17:16 61.54930 6.80378 31119 ft 438 kts 35°
2026-04-27 17:16 61.57294 6.84378 31536 ft 436 kts 35°
2026-04-27 17:16 61.59655 6.88380 31889 ft 436 kts 35°
2026-04-27 17:16 61.62013 6.92385 32228 ft 435 kts 35°
2026-04-27 17:17 61.64358 6.96377 32639 ft 433 kts 35°
2026-04-27 17:17 61.66694 7.00362 33045 ft 432 kts 35°
2026-04-27 17:17 61.69021 7.04340 33420 ft 431 kts 34°
2026-04-27 17:18 61.73664 7.12299 34208 ft 430 kts 34°
2026-04-27 17:18 61.75981 7.16283 34535 ft 429 kts 34°
2026-04-27 17:18 61.78293 7.20266 34837 ft 428 kts 34°
2026-04-27 17:18 61.80600 7.24249 35070 ft 429 kts 34°
2026-04-27 17:19 61.82916 7.28254 35297 ft 430 kts 34°
2026-04-27 17:19 61.85235 7.32271 35404 ft 434 kts 34°
2026-04-27 17:19 61.89917 7.40408 35401 ft 434 kts 34°
2026-04-27 17:20 61.94541 7.48489 35405 ft 428 kts 34°
2026-04-27 17:20 61.99139 7.56550 35407 ft 428 kts 35°
2026-04-27 17:21 62.03723 7.64616 35426 ft 428 kts 34°
2026-04-27 17:21 62.08302 7.72704 35415 ft 427 kts 34°
2026-04-27 17:22 62.12874 7.80815 35426 ft 427 kts 34°
2026-04-27 17:22 62.17416 7.88905 35413 ft 428 kts 34°
2026-04-27 17:23 62.21991 7.97088 35421 ft 429 kts 35°
2026-04-27 17:23 62.26568 8.05307 35421 ft 431 kts 34°
2026-04-27 17:24 62.31155 8.13579 35434 ft 430 kts 34°
2026-04-27 17:24 62.35738 8.21881 35426 ft 430 kts 34°
2026-04-27 17:25 62.40305 8.30189 35436 ft 429 kts 34°
2026-04-27 17:25 62.44858 8.38498 35441 ft 428 kts 35°
2026-04-27 17:26 62.49399 8.46825 35442 ft 428 kts 35°
2026-04-27 17:26 62.53938 8.55181 35439 ft 428 kts 35°
2026-04-27 17:27 62.58464 8.63550 35452 ft 428 kts 35°
2026-04-27 17:27 62.62992 8.71953 35444 ft 428 kts 35°
2026-04-27 17:28 62.67522 8.80396 35454 ft 429 kts 35°
2026-04-27 17:29 62.74305 8.93108 35449 ft 429 kts 35°
2026-04-27 17:29 62.78830 9.01630 35159 ft 434 kts 35°
2026-04-27 17:29 62.81122 9.05957 34581 ft 434 kts 35°
2026-04-27 17:30 62.83398 9.10271 33837 ft 433 kts 35°
2026-04-27 17:30 62.87921 9.18871 32389 ft 429 kts 35°
2026-04-27 17:30 62.90168 9.23156 31646 ft 428 kts 35°
2026-04-27 17:31 62.92409 9.27435 30882 ft 427 kts 35°
2026-04-27 17:31 62.94647 9.31717 30123 ft 425 kts 35°
2026-04-27 17:31 62.96850 9.35949 29524 ft 418 kts 35°
2026-04-27 17:31 62.99013 9.40111 28970 ft 410 kts 35°
2026-04-27 17:32 63.01150 9.44227 28411 ft 405 kts 35°
2026-04-27 17:32 63.05296 9.52228 27322 ft 394 kts 35°
2026-04-27 17:32 63.07374 9.56251 26756 ft 390 kts 35°
2026-04-27 17:33 63.09364 9.60317 26183 ft 393 kts 43°
2026-04-27 17:33 63.10830 9.65387 25716 ft 404 kts 59°
2026-04-27 17:33 63.11634 9.71341 25376 ft 407 kts 72°
2026-04-27 17:33 63.12096 9.77569 24868 ft 417 kts 75°
2026-04-27 17:34 63.12512 9.84006 24316 ft 427 kts 76°
2026-04-27 17:34 63.12926 9.90493 23708 ft 425 kts 75°
2026-04-27 17:34 63.13355 9.96941 23065 ft 421 kts 75°
2026-04-27 17:34 63.13797 10.03291 22500 ft 415 kts 75°
2026-04-27 17:35 63.14240 10.09565 21948 ft 410 kts 75°
2026-04-27 17:35 63.14677 10.15754 21382 ft 406 kts 75°
2026-04-27 17:35 63.15105 10.21893 20827 ft 402 kts 75°
2026-04-27 17:35 63.15525 10.27977 20277 ft 399 kts 75°
2026-04-27 17:36 63.15940 10.34018 19747 ft 395 kts 75°
2026-04-27 17:36 63.16350 10.40008 19209 ft 393 kts 75°
2026-04-27 17:36 63.16755 10.45966 18673 ft 390 kts 75°
2026-04-27 17:36 63.17155 10.51874 18068 ft 387 kts 75°
2026-04-27 17:37 63.17550 10.57748 17528 ft 384 kts 75°
2026-04-27 17:37 63.17937 10.63569 16995 ft 380 kts 75°
2026-04-27 17:37 63.18318 10.69335 16485 ft 377 kts 75°
2026-04-27 17:37 63.18692 10.75048 15959 ft 373 kts 75°
2026-04-27 17:38 63.19060 10.80709 15455 ft 370 kts 75°
2026-04-27 17:38 63.19424 10.86325 14957 ft 367 kts 75°
2026-04-27 17:38 63.19782 10.91883 14448 ft 363 kts 75°
2026-04-27 17:38 63.20133 10.97371 14143 ft 354 kts 75°
2026-04-27 17:39 63.20356 11.00915 14020 ft 346 kts 75°
2026-04-27 17:39 63.20684 11.06112 13848 ft 335 kts 75°
2026-04-27 17:39 63.20999 11.11129 13695 ft 323 kts 75°
2026-04-27 17:39 63.21301 11.15958 13575 ft 311 kts 74°
2026-04-27 17:40 63.21595 11.20635 13439 ft 301 kts 74°
2026-04-27 17:40 63.21878 11.25156 13327 ft 292 kts 74°
2026-04-27 17:40 63.22153 11.29560 13198 ft 285 kts 74°
2026-04-27 17:40 63.22415 11.33850 13092 ft 276 kts 74°
2026-04-27 17:41 63.22668 11.38011 12982 ft 269 kts 73°
2026-04-27 17:41 63.22827 11.42139 12783 ft 273 kts 85°
2026-04-27 17:41 63.22538 11.46349 12575 ft 276 kts 92°
2026-04-27 17:41 63.22207 11.50532 12285 ft 275 kts 91°
2026-04-27 17:42 63.21897 11.54697 12033 ft 272 kts 90°
2026-04-27 17:42 63.21975 11.58734 11768 ft 256 kts 66°
2026-04-27 17:42 63.22487 11.62475 11538 ft 253 kts 65°
2026-04-27 17:42 63.22990 11.66220 11267 ft 254 kts 65°
2026-04-27 17:43 63.23481 11.69967 11030 ft 252 kts 65°
2026-04-27 17:43 63.24257 11.73313 10770 ft 237 kts 42°
2026-04-27 17:43 63.25350 11.76017 10548 ft 236 kts 41°
2026-04-27 17:43 63.26431 11.78763 10294 ft 236 kts 42°
2026-04-27 17:44 63.27511 11.81521 10008 ft 237 kts 43°
2026-04-27 17:44 63.28661 11.84091 9714 ft 231 kts 27°
2026-04-27 17:44 63.30087 11.85602 9473 ft 226 kts 19°
2026-04-27 17:44 63.31538 11.86967 9189 ft 225 kts 13°
2026-04-27 17:45 63.33056 11.87115 8971 ft 218 kts 348°
2026-04-27 17:45 63.34440 11.85764 8711 ft 220 kts 325°
2026-04-27 17:45 63.35479 11.83255 8478 ft 224 kts 305°
2026-04-27 17:45 63.36014 11.79944 8237 ft 231 kts 288°
2026-04-27 17:46 63.36333 11.76433 7985 ft 231 kts 287°
2026-04-27 17:46 63.36658 11.72816 7414 ft 245 kts 287°
2026-04-27 17:46 63.36995 11.69068 7059 ft 249 kts 286°
2026-04-27 17:46 63.37336 11.65276 6760 ft 249 kts 286°
2026-04-27 17:47 63.37676 11.61488 6471 ft 249 kts 285°
2026-04-27 17:47 63.37901 11.58984 6299 ft 249 kts 285°
2026-04-27 17:47 63.38513 11.54118 5885 ft 241 kts 306°
2026-04-27 17:47 63.39584 11.51347 5627 ft 228 kts 317°
2026-04-27 17:48 63.40678 11.48921 5410 ft 222 kts 317°
2026-04-27 17:48 63.41764 11.46516 5129 ft 218 kts 317°
2026-04-27 17:48 63.42822 11.44158 4867 ft 212 kts 317°
2026-04-27 17:48 63.43847 11.41865 4665 ft 204 kts 317°
2026-04-27 17:49 63.44825 11.39674 4431 ft 194 kts 317°
2026-04-27 17:49 63.45527 11.37197 4175 ft 192 kts 283°
2026-04-27 17:49 63.45583 11.34270 3965 ft 185 kts 277°
2026-04-27 17:49 63.45732 11.31472 3716 ft 178 kts 279°
2026-04-27 17:50 63.45772 11.28769 3598 ft 169 kts 274°
2026-04-27 17:50 63.45762 11.23681 3149 ft 162 kts 274°
2026-04-27 17:50 63.45758 11.21171 2906 ft 161 kts 274°
2026-04-27 17:51 63.45756 11.18661 2635 ft 161 kts 274°
2026-04-27 17:51 63.45746 11.16163 2416 ft 161 kts 274°
2026-04-27 17:51 63.45728 11.13692 2288 ft 158 kts 273°
2026-04-27 17:51 63.45726 11.11225 1934 ft 157 kts 275°
2026-04-27 17:52 63.45732 11.08825 1604 ft 152 kts 276°
2026-04-27 17:52 63.45745 11.06512 1345 ft 148 kts 275°
2026-04-27 17:52 63.45753 11.04202 1082 ft 147 kts 274°
2026-04-27 17:52 63.45749 11.01907 858 ft 148 kts 273°
2026-04-27 17:53 63.45752 10.99610 613 ft 148 kts 274°
2026-04-27 17:53 63.45749 10.97370 400 ft 141 kts 275°
2026-04-27 17:53 63.45751 10.95159 177 ft 143 kts 273°
2026-04-27 17:53 63.45746 10.93008 59 ft 129 kts 274°
2026-04-27 17:54 63.45761 10.91358 44 ft 76 kts 270°
2026-04-27 17:54 63.45761 10.90636 36 ft 18 kts 260°
2026-04-27 17:54 63.45702 10.90424 36 ft 15 kts 224°
2026-04-27 17:54 63.45652 10.90374 36 ft 0 kts 184°
2026-04-27 17:56 63.45651 10.90374 35 ft 1 kts 184°
2026-04-27 17:56 63.45629 10.90380 34 ft 6 kts 165°
2026-04-27 17:57 63.45598 10.90484 36 ft 10 kts 91°
2026-04-27 17:57 63.45598 10.90659 38 ft 12 kts 90°
2026-04-27 17:57 63.45598 10.90860 39 ft 14 kts 90°
2026-04-27 17:57 63.45598 10.91077 41 ft 14 kts 90°
2026-04-27 17:58 63.45597 10.91303 43 ft 13 kts 90°
2026-04-27 17:58 63.45592 10.91448 43 ft 9 kts 111°
2026-04-27 17:58 63.45533 10.91484 45 ft 10 kts 192°
2026-04-27 17:58 63.45516 10.91480 45 ft 3 kts 182°
2026-04-27 17:59 63.45506 10.91480 45 ft 0 kts 181°